Terug naar catalogus

QIANFAN-180

ActiefCommunicatiePO
NORAD 69397·PAYLOAD·🇨🇳 China

Gelanceerd Jun 4, 2026 vanaf Taiyuan Satellite Launch Center

Loading…

Volgende Passages (komende 24 uur)

TLE

VersSource: Space-Track

Epoch: Sep 14, 2026, 14:21 UTC

1 69397U 26124R   26257.59821617  .00000133  00000-0  18678-3 0  9990
2 69397  89.0052 352.5495 0001870  95.6163 264.5202 13.51021203 14148

Volg QIANFAN-180 in realtime met AllMySat

Download on the App Store